Location: Azul
(36.7830°S, 59.8500°W)
Time: 20:58:22
(UTC-03:00)

ISS - Pass Details

Date: 21 July 2019
Orbit: 409 x 418 km, 51.6° (Epoch: 23 July)

Event Time Altitude Azimuth Distance (km) Brightness Sun altitude
Rises 06:59:37 0° 350° (N) 2,333 0.1 -13.3°
Reaches altitude 10° 07:02:16 10° 13° (NNE) 1,482 -0.6 -12.8°
Maximum altitude 07:04:21 16° 52° (NE) 1,191 -0.4 -12.4°
Drops below altitude 10° 07:06:28 10° 91° (E) 1,498 0.3 -12.0°
Sets 07:09:10 0° 113° (ESE) 2,372 0.9 -11.5°
